Location: Goettingen
(51.5300°N, 9.9433°E)
Time: 00:45:30
(UTC+02:00)

ISS - Pass Details

Date: 25 May 2017
Orbit: 402 x 408 km, 51.6° (Epoch: 30 May)

Event Time Altitude Azimuth Distance (km) Brightness Sun altitude
Rises 22:35:42 0° 227° (SW) 2,326 0.0 -9.2°
Reaches altitude 10° 22:37:54 10° 217° (SW) 1,467 -1.2 -9.4°
Maximum altitude 22:40:53 33° 152° (SSE) 711 -3.1 -9.7°
Drops below altitude 10° 22:43:54 10° 86° (E) 1,471 -1.3 -10.0°
Sets 22:46:05 0° 76° (ENE) 2,333 -0.2 -10.2°
